ESSA 4 (TOS-B)

Satellite information

Favourite Embed

Satellite Type and Status

PAYLOADIN ORBIT

Key statistics

Satellite ESSA 4 (TOS-B) at a glance.

Uptime

21411

Days in orbit

Revolutions

≈ 12.7

Per day

Orbit

SSO

Sun Synchronous Orbit

Inclination

102.1

Latest

Satellite identification and parameters

Extended collection of information and parameters for ESSA 4 (TOS-B).

Object identification

Identified? True

Debris? False

Object name: ESSA 4 (TOS-B)

International designator: 1967-006A

Object number (NORAD): 2657

Object ID (CCSDS): 2657

Country: UNITED STATES OF AMERICA (US)

Current information (Y/N): Y

RCS size: MEDIUM

Orbital parameters

Period: 113.396 minutes

Inclination: 102.0891 deg

SMA: 7760.544 km

Apoapsis: 1439.233 km

Periapsis: 1325.585 km

RAAN: 71.0417 deg

Eccentricy: 0.00732222

Argument of periapsis: 111.1291 deg

Mean anomaly: 305.2185 deg

Mean motion: 12.69885336 rev/day

Mean motion (dot): -0.00000047 rev/day2

B* drag term: 0.000007043929 1/REarth

Two-line elements (TLE)

Creation date: Sept. 8, 2025, 6:18 p.m.

Reference frame: TEME

Reference center: EARTH

Epoch: Sept. 8, 2025, 11:14 a.m. UTC

TLE line 0: 0 ESSA 4 (TOS-B)

TLE line 1: 1 02657U 67006A 25251.46827222 -.00000047 00000-0 70439-5 0 9997

TLE line 2: 2 02657 102.0891 71.0417 0073222 111.1291 305.2185 12.69885336716789

Live tracking on map

Real-time ground track for satellite ESSA 4 (TOS-B).

In-orbit conjunctions

A list of the most updated potential collisions computed for object ESSA 4 (TOS-B).

Target Orbit TCA Probability of collision Miss distance Type
COSMOS 397 DEB LEO 2025-02-02 22:45:04 0.0002277459 220.0 (m) DEBRIS

Associated space launch

The ESSA series was the second generation of US meterological satellites after the TIROS (Television & Infra-Red Observation Satellite) series. They were also called OT (Operational TIROS), TOS (TIROS Operational Satellite).

ESSA 4 (TOS-B) was lifted into orbit during the mission ‘Thor Delta E | ESSA 4’, on board a Thor Delta E space rocket.

The launch took place on Jan. 26, 1967, 5:31 p.m. from Space Launch Complex 2E.

For more information about the launch, click the button.

Launch to space Thor Delta E | ESSA 4
Thor Delta E | ESSA 4

Agency: N/A

Status: Launch Successful

Launch date: Jan. 26, 1967, 5:31 p.m. UTC

Rocket: Thor Delta E

Launch pad: Space Launch Complex 2E

Location: Vandenberg SFB, CA, USA

...

Latest news about this satellite

There are no fresh news available about this satellite. Check back as we update our databases every day.


Newsletter sign-up

Weekly statistics, charts and insights to help you stay on top of the space industry.